�������l�o���
Date,Time,MP-1(��Sv/h),MP-2(��Sv/h),MP-3(��Sv/h),MP-4(��Sv/h),MP-5(��Sv/h),MP-6(��Sv/h),MP-7(��Sv/h),MP-8(��Sv/h),����,����(m/s),���J
2024/02/25,00:00,0.497,0.754,0.475,0.935,0.674,0.304,0.546,0.514,���k��,3.9,��
2024/02/25,00:10,0.498,0.754,0.473,0.935,0.675,0.304,0.547,0.515,�k��,4.8,��
2024/02/25,00:20,0.497,0.753,0.472,0.935,0.675,0.305,0.546,0.515,�k��,4.6,��
2024/02/25,00:30,0.498,0.753,0.475,0.934,0.675,0.304,0.546,0.515,�k��,4.9,��
2024/02/25,00:40,0.498,0.752,0.474,0.934,0.673,0.304,0.547,0.514,�k�k��,4.4,��
2024/02/25,00:50,0.500,0.754,0.473,0.934,0.676,0.305,0.545,0.515,�k�k��,5.2,��
2024/02/25,01:00,0.499,0.753,0.475,0.936,0.676,0.304,0.547,0.514,�k�k��,5.8,��
2024/02/25,01:10,0.498,0.753,0.474,0.935,0.676,0.304,0.547,0.513,�k�k��,4.9,��
2024/02/25,01:20,0.498,0.756,0.474,0.936,0.675,0.305,0.547,0.515,�k�k��,5.2,��
2024/02/25,01:30,0.499,0.754,0.472,0.935,0.676,0.305,0.546,0.514,�k�k��,5.5,��
2024/02/25,01:40,0.498,0.754,0.473,0.935,0.675,0.305,0.546,0.513,�k��,5.3,��
2024/02/25,01:50,0.499,0.755,0.474,0.936,0.675,0.306,0.548,0.514,�k��,5.6,��
2024/02/25,02:00,0.497,0.754,0.473,0.933,0.676,0.305,0.547,0.514,�k��,5.2,��
2024/02/25,02:10,0.499,0.754,0.474,0.936,0.676,0.303,0.547,0.515,�k��,5.3,��
2024/02/25,02:20,0.500,0.754,0.474,0.936,0.674,0.304,0.545,0.513,�k��,5.8,��
2024/02/25,02:30,0.499,0.754,0.475,0.935,0.675,0.304,0.549,0.513,�k��,6.4,��
2024/02/25,02:40,0.498,0.754,0.476,0.936,0.674,0.305,0.547,0.515,�k��,5.8,��
2024/02/25,02:50,0.500,0.753,0.474,0.936,0.673,0.305,0.547,0.515,�k��,5.0,��
2024/02/25,03:00,0.499,0.754,0.474,0.934,0.675,0.305,0.547,0.514,�k��,5.6,��
2024/02/25,03:10,0.497,0.754,0.473,0.936,0.674,0.304,0.548,0.516,�k��,5.6,��
2024/02/25,03:20,0.499,0.754,0.473,0.935,0.674,0.303,0.547,0.516,�k��,6.1,��
2024/02/25,03:30,0.498,0.753,0.472,0.935,0.676,0.304,0.547,0.515,�k��,5.9,��
2024/02/25,03:40,0.498,0.753,0.475,0.935,0.674,0.304,0.549,0.514,�k��,6.5,��
2024/02/25,03:50,0.498,0.756,0.474,0.935,0.673,0.304,0.547,0.514,�k��,5.2,��
2024/02/25,04:00,0.497,0.753,0.474,0.938,0.675,0.304,0.546,0.515,�k��,5.7,��
2024/02/25,04:10,0.498,0.752,0.474,0.934,0.674,0.304,0.547,0.516,�k��,6.0,��
2024/02/25,04:20,0.496,0.755,0.474,0.934,0.675,0.304,0.549,0.514,�k��,6.3,��
2024/02/25,04:30,0.499,0.754,0.474,0.936,0.675,0.304,0.548,0.512,�k��,5.4,��
2024/02/25,04:40,0.500,0.753,0.472,0.937,0.677,0.304,0.548,0.514,�k��,5.9,��
2024/02/25,04:50,0.498,0.757,0.474,0.936,0.674,0.307,0.549,0.515,�k��,5.6,��
2024/02/25,05:00,0.498,0.754,0.475,0.935,0.675,0.304,0.548,0.516,�k��,5.9,��
2024/02/25,05:10,0.497,0.753,0.474,0.937,0.676,0.304,0.549,0.516,�k��,6.2,��
2024/02/25,05:20,0.499,0.754,0.474,0.935,0.675,0.306,0.549,0.515,�k��,6.0,��
2024/02/25,05:30,0.498,0.754,0.475,0.935,0.676,0.306,0.548,0.515,�k�k��,6.4,��
2024/02/25,05:40,0.497,0.754,0.473,0.935,0.674,0.305,0.548,0.514,�k�k��,5.4,��
2024/02/25,05:50,0.497,0.756,0.475,0.938,0.674,0.307,0.550,0.517,�k��,6.7,��
2024/02/25,06:00,0.498,0.752,0.472,0.936,0.676,0.305,0.549,0.514,�k��,5.3,��
2024/02/25,06:10,0.497,0.754,0.474,0.937,0.676,0.303,0.547,0.514,�k��,5.8,��
2024/02/25,06:20,0.499,0.754,0.474,0.937,0.674,0.304,0.548,0.515,�k��,5.6,��
2024/02/25,06:30,0.497,0.754,0.474,0.936,0.673,0.305,0.550,0.516,�k��,5.7,��
2024/02/25,06:40,0.500,0.754,0.474,0.935,0.675,0.305,0.548,0.515,�k��,5.7,��
2024/02/25,06:50,0.499,0.755,0.474,0.936,0.676,0.305,0.548,0.516,�k��,5.5,��
2024/02/25,07:00,0.498,0.753,0.473,0.938,0.674,0.306,0.548,0.514,�k��,5.4,��
2024/02/25,07:10,0.500,0.753,0.474,0.937,0.676,0.304,0.550,0.517,�k��,5.3,��
2024/02/25,07:20,0.498,0.753,0.474,0.935,0.674,0.304,0.546,0.514,�k��,5.4,��
2024/02/25,07:30,0.501,0.754,0.474,0.934,0.676,0.305,0.548,0.515,�k��,5.0,��
2024/02/25,07:40,0.499,0.752,0.476,0.936,0.674,0.304,0.548,0.514,�k��,4.3,��
2024/02/25,07:50,0.497,0.755,0.475,0.936,0.675,0.304,0.549,0.515,�k��,4.4,��
2024/02/25,08:00,0.498,0.755,0.476,0.937,0.676,0.304,0.549,0.515,�k��,4.1,��
2024/02/25,08:10,0.499,0.756,0.476,0.938,0.675,0.305,0.548,0.515,�k��,3.7,��
2024/02/25,08:20,0.499,0.755,0.476,0.936,0.677,0.304,0.549,0.516,�k��,3.7,��
2024/02/25,08:30,0.499,0.757,0.476,0.938,0.676,0.305,0.549,0.516,�k��,4.1,��
2024/02/25,08:40,0.500,0.756,0.474,0.937,0.675,0.307,0.549,0.516,�k��,4.2,��
2024/02/25,08:50,0.501,0.755,0.475,0.938,0.676,0.305,0.549,0.516,���k��,2.9,��
2024/02/25,09:00,0.498,0.756,0.475,0.938,0.677,0.305,0.550,0.517,�k�k��,3.4,��
2024/02/25,09:10,0.500,0.756,0.477,0.937,0.678,0.305,0.550,0.514,�k��,4.2,��
2024/02/25,09:20,0.499,0.757,0.476,0.938,0.677,0.307,0.550,0.516,�k��,3.7,��
2024/02/25,09:30,0.499,0.757,0.476,0.936,0.675,0.306,0.549,0.515,�k��,3.5,��
2024/02/25,09:40,0.500,0.755,0.476,0.939,0.677,0.306,0.549,0.516,�k�k��,3.2,��
2024/02/25,09:50,0.500,0.756,0.476,0.937,0.676,0.306,0.548,0.515,�k�k��,2.9,��
2024/02/25,10:00,0.500,0.756,0.476,0.938,0.677,0.307,0.549,0.516,�k�k��,3.3,��
2024/02/25,10:10,0.499,0.756,0.475,0.936,0.676,0.306,0.549,0.517,�k�k��,3.5,��
2024/02/25,10:20,0.500,0.756,0.477,0.938,0.678,0.308,0.550,0.517,�k,3.5,��
2024/02/25,10:30,0.501,0.758,0.476,0.939,0.678,0.306,0.549,0.517,�k,3.1,��
2024/02/25,10:40,0.500,0.758,0.478,0.940,0.680,0.307,0.549,0.516,�k�k��,3.1,��
2024/02/25,10:50,0.500,0.757,0.475,0.941,0.679,0.308,0.548,0.517,�k�k��,4.0,��
2024/02/25,11:00,0.500,0.758,0.476,0.939,0.679,0.306,0.550,0.517,�k�k��,4.4,��
2024/02/25,11:10,0.500,0.756,0.476,0.939,0.678,0.305,0.547,0.517,�k�k��,3.9,��
2024/02/25,11:20,0.500,0.758,0.476,0.940,0.680,0.306,0.547,0.516,�k�k��,4.8,��
2024/02/25,11:30,0.500,0.760,0.477,0.939,0.679,0.308,0.549,0.516,�k�k��,4.0,��
2024/02/25,11:40,0.500,0.759,0.476,0.938,0.679,0.306,0.547,0.518,�k,4.8,��
2024/02/25,11:50,0.502,0.757,0.476,0.937,0.678,0.307,0.547,0.516,�k,4.7,��
2024/02/25,12:00,0.502,0.756,0.476,0.939,0.679,0.305,0.547,0.516,�k,4.1,��
2024/02/25,12:10,0.500,0.757,0.476,0.940,0.679,0.308,0.548,0.516,�k,4.1,��
2024/02/25,12:20,0.501,0.757,0.478,0.939,0.679,0.306,0.548,0.516,�k,3.8,��
2024/02/25,12:30,0.499,0.757,0.477,0.939,0.680,0.306,0.548,0.515,�k�k��,4.2,��
2024/02/25,12:40,0.502,0.759,0.476,0.939,0.679,0.308,0.548,0.516,�k,3.5,��
2024/02/25,12:50,0.500,0.757,0.477,0.939,0.681,0.306,0.548,0.516,�k�k��,2.9,�L
2024/02/25,13:00,0.501,0.757,0.477,0.939,0.679,0.307,0.548,0.516,�k,2.8,�L
2024/02/25,13:10,0.499,0.757,0.477,0.940,0.678,0.305,0.549,0.516,�k�k��,3.2,��
2024/02/25,13:20,0.500,0.759,0.477,0.940,0.678,0.306,0.549,0.516,�k�k��,4.1,��
2024/02/25,13:30,0.501,0.758,0.476,0.939,0.680,0.306,0.548,0.517,�k�k��,3.5,��
2024/02/25,13:40,0.501,0.758,0.477,0.941,0.679,0.308,0.549,0.517,�k�k��,3.5,��
2024/02/25,13:50,0.501,0.758,0.477,0.941,0.680,0.308,0.549,0.517,�k�k��,4.4,��
2024/02/25,14:00,0.502,0.760,0.478,0.940,0.680,0.307,0.549,0.517,�k�k��,3.5,��
2024/02/25,14:10,0.502,0.758,0.477,0.941,0.679,0.308,0.552,0.517,�k�k��,4.0,��
2024/02/25,14:20,0.501,0.759,0.477,0.939,0.679,0.307,0.548,0.516,�k�k��,4.2,��
2024/02/25,14:30,0.502,0.759,0.477,0.940,0.682,0.309,0.548,0.516,�k�k��,4.2,��
2024/02/25,14:40,0.503,0.757,0.478,0.940,0.680,0.307,0.549,0.517,�k�k��,4.1,��
2024/02/25,14:50,0.502,0.758,0.477,0.941,0.681,0.308,0.550,0.516,�k��,4.5,��
2024/02/25,15:00,0.500,0.758,0.477,0.943,0.680,0.308,0.549,0.516,�k��,4.1,��
2024/02/25,15:10,0.503,0.760,0.476,0.939,0.681,0.307,0.549,0.516,�k��,4.4,��
2024/02/25,15:20,0.502,0.761,0.478,0.940,0.680,0.307,0.550,0.516,�k��,4.1,�L
2024/02/25,15:30,0.502,0.758,0.478,0.941,0.681,0.309,0.549,0.518,�k��,5.0,�L
2024/02/25,15:40,0.501,0.758,0.477,0.940,0.680,0.307,0.549,0.517,�k�k��,4.8,�L
2024/02/25,15:50,0.503,0.760,0.478,0.941,0.679,0.308,0.550,0.517,�k��,5.1,�L
2024/02/25,16:00,0.503,0.758,0.478,0.940,0.681,0.307,0.550,0.518,�k��,4.9,�L
2024/02/25,16:10,0.502,0.761,0.478,0.941,0.682,0.307,0.550,0.516,�k��,4.0,�L
2024/02/25,16:20,0.502,0.760,0.479,0.941,0.679,0.308,0.551,0.516,�k��,4.5,�L
2024/02/25,16:30,0.504,0.761,0.480,0.943,0.681,0.309,0.551,0.516,�k��,5.0,�L
2024/02/25,16:40,0.503,0.761,0.479,0.942,0.681,0.310,0.552,0.517,�k��,5.7,�L
2024/02/25,16:50,0.503,0.758,0.479,0.940,0.681,0.309,0.552,0.518,�k�k��,6.1,�L
2024/02/25,17:00,0.502,0.759,0.478,0.941,0.680,0.309,0.550,0.517,�k��,6.6,�L
2024/02/25,17:10,0.502,0.760,0.478,0.939,0.682,0.309,0.551,0.517,�k�k��,7.1,�L
2024/02/25,17:20,0.502,0.758,0.478,0.943,0.679,0.309,0.552,0.516,�k�k��,6.1,�L
2024/02/25,17:30,0.501,0.758,0.478,0.942,0.681,0.308,0.551,0.516,�k�k��,7.1,�L
2024/02/25,17:40,0.501,0.757,0.479,0.939,0.679,0.310,0.550,0.518,�k�k��,6.7,�L
2024/02/25,17:50,0.502,0.756,0.479,0.940,0.678,0.309,0.549,0.517,�k��,6.8,�L
2024/02/25,18:00,0.502,0.757,0.478,0.940,0.677,0.309,0.549,0.515,�k�k��,7.4,�L
2024/02/25,18:10,0.501,0.754,0.478,0.939,0.677,0.309,0.549,0.517,�k�k��,6.6,�L
2024/02/25,18:20,0.501,0.754,0.477,0.940,0.677,0.309,0.551,0.515,�k�k��,6.7,�L
2024/02/25,18:30,0.501,0.755,0.477,0.939,0.677,0.310,0.549,0.514,�k�k��,6.4,�L
2024/02/25,18:40,0.502,0.750,0.476,0.939,0.673,0.310,0.549,0.515,�k�k��,7.7,�L
2024/02/25,18:50,0.499,0.748,0.475,0.937,0.674,0.308,0.550,0.514,�k�k��,6.9,�L
2024/02/25,19:00,0.499,0.749,0.474,0.935,0.672,0.308,0.548,0.515,�k�k��,9.4,�L
2024/02/25,19:10,0.498,0.748,0.475,0.933,0.670,0.308,0.549,0.517,�k�k��,7.2,�L
2024/02/25,19:20,0.497,0.747,0.475,0.933,0.672,0.309,0.548,0.515,�k�k��,7.2,�L
2024/02/25,19:30,0.497,0.746,0.474,0.934,0.670,0.309,0.549,0.513,�k�k��,8.2,�L
2024/02/25,19:40,0.496,0.745,0.471,0.931,0.666,0.309,0.547,0.515,�k��,7.9,�L
2024/02/25,19:50,0.495,0.746,0.472,0.931,0.668,0.309,0.547,0.515,�k�k��,8.0,�L
2024/02/25,20:00,0.495,0.743,0.473,0.931,0.667,0.309,0.547,0.513,�k�k��,7.5,�L
2024/02/25,20:10,0.493,0.742,0.473,0.928,0.668,0.307,0.547,0.512,�k�k��,7.5,�L
2024/02/25,20:20,0.494,0.745,0.471,0.929,0.666,0.309,0.546,0.514,�k�k��,7.0,�L
2024/02/25,20:30,0.493,0.741,0.471,0.928,0.666,0.307,0.547,0.512,�k��,7.5,�L
2024/02/25,20:40,0.492,0.742,0.473,0.929,0.665,0.308,0.546,0.513,�k�k��,7.8,�L
2024/02/25,20:50,0.493,0.740,0.471,0.929,0.666,0.307,0.545,0.514,�k�k��,8.1,�L
2024/02/25,21:00,0.492,0.741,0.471,0.926,0.665,0.306,0.545,0.514,�k�k��,7.8,�L
2024/02/25,21:10,0.493,0.739,0.470,0.926,0.666,0.307,0.545,0.514,�k�k��,8.3,�L
2024/02/25,21:20,0.492,0.739,0.471,0.926,0.664,0.308,0.546,0.512,�k��,8.3,�L
2024/02/25,21:30,0.492,0.738,0.469,0.925,0.665,0.307,0.546,0.514,�k�k��,7.6,�L
2024/02/25,21:40,0.492,0.739,0.471,0.926,0.664,0.307,0.545,0.514,�k�k��,7.8,�L
2024/02/25,21:50,0.491,0.738,0.471,0.924,0.664,0.309,0.545,0.513,�k��,7.9,�L
2024/02/25,22:00,0.492,0.739,0.470,0.925,0.662,0.307,0.546,0.511,�k��,6.9,�L
2024/02/25,22:10,0.491,0.734,0.471,0.921,0.661,0.307,0.544,0.511,�k��,7.1,�L
2024/02/25,22:20,0.489,0.736,0.468,0.918,0.661,0.307,0.544,0.512,�k��,7.5,�L
2024/02/25,22:30,0.490,0.735,0.468,0.918,0.660,0.306,0.543,0.512,�k��,7.2,�L
2024/02/25,22:40,0.490,0.733,0.469,0.917,0.660,0.307,0.544,0.511,�k�k��,5.5,�L
2024/02/25,22:50,0.488,0.732,0.467,0.917,0.658,0.308,0.543,0.512,�k��,6.6,�L
2024/02/25,23:00,0.488,0.734,0.471,0.916,0.657,0.309,0.543,0.510,�k�k��,7.8,�L
2024/02/25,23:10,0.488,0.733,0.468,0.917,0.658,0.308,0.542,0.511,�k�k��,6.8,�L
2024/02/25,23:20,0.487,0.732,0.469,0.917,0.655,0.306,0.543,0.509,�k�k��,6.0,�L
2024/02/25,23:30,0.490,0.733,0.468,0.914,0.657,0.307,0.542,0.511,�k�k��,6.9,�L
2024/02/25,23:40,0.488,0.734,0.469,0.915,0.659,0.305,0.542,0.510,�k�k��,7.2,�L
2024/02/25,23:50,0.487,0.731,0.469,0.916,0.656,0.306,0.542,0.509,�k�k��,7.7,�L
